DW8923 Weather Reports


time (UTC)temp
C
wind
direction
speed
KPH
gust
KPH
rain 1hr
cm
rain 24hr
cm
rain mn
cm
humidity
%
barometer
mb
20260510114544 20 152 0.0 8.0 0.00 0.00 0.00 90 1009.6
20260510113043 20 157 1.6 4.8 0.00 0.00 0.00 90 1009.6
20260510111542 20 164 0.0 4.8 0.00 0.00 0.00 89 1009.6
20260510110040 20 149 0.0 1.6 0.00 0.00 0.00 88 1009.5
20260510104538 20 170 0.0 4.8 0.00 0.00 0.00 88 1009.5
20260510103038 20 121 0.0 4.8 0.00 0.00 0.00 88 1009.5
20260510101535 21 165 0.0 12.9 0.00 0.00 0.00 88 1009.2
20260510100036 21 152 0.0 8.0 0.00 0.00 0.00 87 1009.0
20260510094540 21 119 0.0 6.4 0.00 0.00 0.00 87 1008.9
20260510093031 21 137 3.2 8.0 0.00 0.00 0.00 86 1008.6
20260510091532 21 142 3.2 8.0 0.00 0.00 0.00 86 1008.6
20260510090028 21 156 4.8 11.3 0.00 0.00 0.00 85 1008.6
20260510084527 21 161 3.2 8.0 0.00 0.00 0.00 84 1008.7
20260510083025 21 166 3.2 9.7 0.00 0.00 0.00 83 1008.7
20260510081534 22 134 4.8 11.3 0.00 0.00 0.00 83 1009.0
20260510080018 22 148 1.6 11.3 0.00 0.00 0.00 82 1009.1
20260510074518 22 132 3.2 11.3 0.00 0.00 0.00 82 1009.2
20260510073016 22 150 3.2 9.7 0.00 0.00 0.00 81 1009.3
20260510071515 22 136 3.2 14.5 0.00 0.00 0.00 81 1009.3
20260510070013 22 115 4.8 9.7 0.00 0.00 0.00 80 1009.1
20260510064516 22 159 3.2 9.7 0.00 0.00 0.00 80 1009.1
20260510063016 22 151 1.6 6.4 0.00 0.00 0.00 79 1009.1
20260510061521 22 140 3.2 8.0 0.00 0.00 0.00 80 1009.1
20260510060009 22 180 1.6 8.0 0.00 0.00 0.00 82 1009.1
20260510054507 22 136 1.6 6.4 0.00 0.00 0.00 83 1009.0
20260510053006 22 130 1.6 4.8 0.00 0.00 0.00 86 1008.9
20260510051514 22 98 0.0 4.8 0.00 0.00 0.00 87 1009.0
20260510050059 22 123 0.0 1.6 0.00 0.00 0.00 86 1009.0
20260510044558 22 167 0.0 0.0 0.00 0.00 0.00 84 1008.9
20260510043100 23 167 0.0 0.0 0.00 0.00 0.00 82 1009.0
20260510041635 23 167 0.0 0.0 0.00 0.00 0.00 81 1009.1
20260510040056 23 97 0.0 0.0 0.00 0.00 0.00 80 1009.1
20260510034602 23 97 0.0 0.0 0.00 0.00 0.00 78 1008.8
20260510033116 24 97 0.0 0.0 0.00 0.00 0.00 79 1008.7
20260510031557 24 121 0.0 1.6 0.00 0.00 0.00 78 1008.6
20260510030055 25 121 0.0 1.6 0.00 0.00 0.00 76 1008.5
20260510024609 25 121 0.0 0.0 0.00 0.00 0.00 74 1008.1
20260510023059 26 121 0.0 0.0 0.00 0.00 0.00 71 1007.9
20260510021554 26 121 0.0 0.0 0.00 0.00 0.00 70 1007.7
20260510020053 27 121 0.0 3.2 0.00 0.00 0.00 70 1007.5
20260510014612 27 107 0.0 4.8 0.00 0.00 0.00 69 1007.3
20260510013102 27 141 1.6 6.4 0.00 0.00 0.00 68 1007.0
20260510011552 28 110 1.6 9.7 0.00 0.00 0.00 67 1007.0
20260510010051 28 111 3.2 6.4 0.00 0.00 0.00 66 1006.9
20260510004553 29 98 1.6 6.4 0.00 0.00 0.00 64 1006.8
20260510003050 30 94 3.2 11.3 0.00 0.00 0.00 61 1006.6
20260510001549 31 85 4.8 12.9 0.00 0.00 0.00 58 1006.6
20260510000048 32 119 1.6 8.0 0.00 0.00 0.00 51 1006.4
20260509234548 32 256 0.0 1.6 0.00 0.00 0.00 46 1006.3
20260509233051 32 256 0.0 3.2 0.00 0.00 0.00 45 1006.2
20260509231557 32 224 0.0 6.4 0.00 0.00 0.00 46 1006.2
20260509230046 32 261 4.8 16.1 0.00 0.00 0.00 47 1006.1
20260509224545 32 92 3.2 9.7 0.00 0.00 0.00 47 1006.2
20260509223050 32 99 1.6 4.8 0.00 0.00 0.00 47 1006.3
20260509221545 32 121 1.6 8.0 0.00 0.00 0.00 48 1006.1
20260509220045 32 99 0.0 8.0 0.00 0.00 0.00 48 1006.3
20260509214540 33 128 0.0 8.0 0.00 0.00 0.00 47 1006.4
20260509213036 33 135 1.6 6.4 0.00 0.00 0.00 45 1006.5
20260509211533 32 325 0.0 4.8 0.00 0.00 0.00 44 1006.8
20260509210041 32 321 0.0 4.8 0.00 0.00 0.00 45 1007.0
20260509204525 32 294 0.0 4.8 0.00 0.00 0.00 46 1007.3
20260509203024 32 144 1.6 6.4 0.00 0.00 0.00 47 1007.6
20260509201525 31 172 4.8 11.3 0.00 0.00 0.00 48 1007.9
20260509200016 31 109 1.6 9.7 0.00 0.00 0.00 50 1008.1
20260509194513 30 236 0.0 6.4 0.00 0.00 0.00 51 1008.1
20260509193009 30 44 0.0 6.4 0.00 0.00 0.00 58 1008.2
20260509191508 29 27 0.0 9.7 0.00 0.00 0.00 61 1008.4
20260509190006 28 339 1.6 6.4 0.00 0.00 0.00 68 1008.8
20260509184514 28 262 0.0 6.4 0.00 0.00 0.00 75 1008.9
20260509183004 27 313 0.0 4.8 0.00 0.00 0.00 78 1009.2
20260509181503 26 73 0.0 3.2 0.00 0.00 0.00 79 1009.5
20260509180002 26 116 0.0 4.8 0.00 0.00 0.00 78 1009.7
20260509174505 26 86 1.6 6.4 0.00 0.00 0.00 77 1009.6
20260509173002 26 35 0.0 4.8 0.00 0.00 0.00 84 1009.8
20260509171503 26 75 0.0 8.0 0.00 0.00 0.00 81 1010.1
20260509170122 26 94 1.6 6.4 0.00 0.00 0.00 77 1010.2
20260509164604 27 146 4.8 12.9 0.00 0.00 0.00 74 1009.9
20260509163059 28 134 1.6 16.1 0.00 0.00 0.00 71 1009.7
20260509161559 30 243 0.0 6.4 0.00 0.00 0.00 63 1009.9
20260509160059 30 137 0.0 6.4 0.00 0.00 0.00 64 1009.7
20260509154555 30 142 3.2 8.0 0.00 0.00 0.00 66 1009.5
20260509153052 28 123 1.6 6.4 0.00 0.00 0.00 71 1009.5
20260509151602 28 132 1.6 8.0 0.00 0.00 0.00 72 1009.3
20260509150048 27 221 3.2 12.9 0.00 0.00 0.00 74 1009.1
20260509144540 27 210 6.4 17.7 0.00 0.00 0.00 76 1008.8
20260509143037 26 178 3.2 14.5 0.00 0.00 0.00 81 1008.5
20260509141531 25 148 4.8 16.1 0.00 0.00 0.00 84 1008.4
20260509140026 24 131 3.2 11.3 0.00 0.00 0.00 89 1008.6
20260509134521 23 209 1.6 12.9 0.00 0.00 0.00 93 1008.9
20260509133017 22 126 1.6 6.4 0.00 0.00 0.00 95 1008.6
20260509131513 22 155 1.6 8.0 0.00 0.00 0.00 95 1008.3
20260509130034 21 220 1.6 4.8 0.00 0.00 0.00 95 1008.5
20260509124526 21 159 0.0 4.8 0.00 0.00 0.00 95 1008.6
20260509123011 21 246 3.2 8.0 0.00 0.00 0.00 95 1008.7
20260509121508 21 296 0.0 3.2 0.00 0.00 0.00 95 1009.2
20260509120013 21 129 0.0 0.0 0.00 0.00 0.00 95 1009.2